{"data":{"norad_id":63011,"intl_designator":"2025-032G","name":"STARLINK-11580 [DTC]","alt_names":[],"object_type":"PAYLOAD","status":"ACTIVE","operator":null,"country":"US","launch_date":"2025-02-15","launch_site_code":"AFETR","launch_vehicle":null,"mission":null,"orbit_class":"UNKNOWN","rcs_meters":null,"size_class":null,"mass_kg":null,"dimensions":null,"purposes":["comms"],"wikipedia_slug":null,"has_3d_model":false,"image_url":null,"decayed_at":null,"tle_current":{"epoch":"2026-09-21T13:45:36.190656Z","epoch_age_seconds":72904,"freshness":"FRESH","line1":"1 63011U 25032G   26264.57333554  .00124581  00000+0  95865-3 0  9994","line2":"2 63011  42.9998  94.4011 0001582 265.3169  94.7518 15.70870817 92875","mean_motion":15.70870817,"eccentricity":0.0001582,"inclination_deg":42.9998,"raan_deg":94.4011,"arg_perigee_deg":265.3169,"mean_anomaly_deg":94.7518,"bstar":0.00095865,"rev_number":9287,"period_min":91.668900104088,"perigee_km":355.34157739703,"apogee_km":357.47238711302,"semimajor_km":6734.543982255,"source":"CELESTRAK","updated_at":"2026-09-22T09:00:49.739907Z"}}}